Terminal Aerodrome Forecast
Issued by NWS

Home | Current Version | Previous Version | Text Only | Print | Product List | Glossary On
Versions: 1 2 3 4 5 6 7 8 9 10 11 12 13 14
000
FTUS45 KRIW 241700
TAFBPI
TAF
KBPI 241720Z 2418/2518 VRB05KT P6SM VCSH SCT025 BKN050
     FM242000 VRB10KT P6SM VCTS SCT025 BKN060CB
     FM250200 34007KT 6SM -RA BR SCT010 OVC025
     FM251700 33012KT P6SM SCT020 BKN050=

USA.gov is the U.S. government's official web portal to all federal, state and local government web resources and services.